Previsão horária em Allada

Hoje, 25 Janeiro, Segunda-feira

Tempo Temperatura Precipitação Vento Pressão Humidade
00:00 +26°C° 0 mm 2 m/s 750 mmHg 84%
01:00 +26°C° 0 mm 1 m/s 750 mmHg 87%
02:00 +25°C° 0 mm 1 m/s 750 mmHg 89%
03:00 +25°C° 0 mm 1 m/s 749 mmHg 91%
04:00 +25°C° 0 mm 1 m/s 750 mmHg 92%
05:00 +22°C° 0 mm 0 m/s 750 mmHg 93%
06:00 +22°C° 0 mm 0 m/s 750 mmHg 94%
07:00 +28°C° 0 mm 1 m/s 751 mmHg 81%
08:00 +29°C° 0 mm 2 m/s 751 mmHg 71%
09:00 +31°C° 0 mm 2 m/s 752 mmHg 61%
10:00 +34°C° 0 mm 2 m/s 751 mmHg 55%
11:00 +36°C° 0 mm 2 m/s 751 mmHg 48%
12:00 +38°C° 0 mm 2 m/s 751 mmHg 41%
13:00 +37°C° 0.1 mm 3 m/s 750 mmHg 45%
14:00 +36°C° 0.1 mm 4 m/s 749 mmHg 48%
15:00 +35°C° 0.1 mm 4 m/s 748 mmHg 52%
16:00 +33°C° 0 mm 4 m/s 749 mmHg 57%
17:00 +32°C° 0 mm 4 m/s 749 mmHg 63%
18:00 +29°C° 0 mm 4 m/s 749 mmHg 69%
19:00 +29°C° 0 mm 3 m/s 750 mmHg 71%
20:00 +28°C° 0 mm 3 m/s 750 mmHg 73%
21:00 +28°C° 0 mm 3 m/s 751 mmHg 76%
22:00 +27°C° 0 mm 3 m/s 751 mmHg 77%
23:00 +27°C° 0 mm 2 m/s 751 mmHg 79%

Amanhã, 26 Janeiro, Terça-feira

Tempo Temperatura Precipitação Vento Pressão Humidade
00:00 +27°C° 0 mm 2 m/s 751 mmHg 80%
01:00 +26°C° 0 mm 2 m/s 750 mmHg 82%
02:00 +26°C° 0 mm 1 m/s 750 mmHg 84%
03:00 +26°C° 0 mm 1 m/s 749 mmHg 85%
04:00 +25°C° 0 mm 1 m/s 750 mmHg 87%
05:00 +25°C° 0 mm 1 m/s 750 mmHg 88%
06:00 +23°C° 0 mm 0 m/s 751 mmHg 89%
07:00 +27°C° 0 mm 1 m/s 751 mmHg 80%
08:00 +29°C° 0 mm 1 m/s 752 mmHg 70%
09:00 +31°C° 0 mm 2 m/s 752 mmHg 61%
10:00 +32°C° 0.2 mm 2 m/s 752 mmHg 58%
11:00 +32°C° 0.2 mm 2 m/s 751 mmHg 56%
12:00 +34°C° 0.2 mm 2 m/s 751 mmHg 54%
13:00 +35°C° 0.2 mm 2 m/s 750 mmHg 52%
14:00 +35°C° 0.2 mm 3 m/s 749 mmHg 49%
15:00 +35°C° 0.2 mm 3 m/s 749 mmHg 47%
16:00 +34°C° 0 mm 3 m/s 749 mmHg 53%
17:00 +31°C° 0 mm 3 m/s 749 mmHg 59%
18:00 +30°C° 0 mm 4 m/s 749 mmHg 66%
19:00 +29°C° 0 mm 4 m/s 750 mmHg 70%
20:00 +29°C° 0 mm 4 m/s 750 mmHg 75%
21:00 +28°C° 0 mm 4 m/s 751 mmHg 80%
22:00 +28°C° 0 mm 3 m/s 751 mmHg 82%
23:00 +27°C° 0 mm 3 m/s 751 mmHg 84%

Depois de amanhã, 27 Janeiro, Quarta-feira

Tempo Temperatura Precipitação Vento Pressão Humidade
00:00 +27°C° 0 mm 2 m/s 751 mmHg 87%
01:00 +27°C° 0 mm 2 m/s 750 mmHg 88%
02:00 +26°C° 0 mm 1 m/s 750 mmHg 90%
03:00 +26°C° 0 mm 1 m/s 750 mmHg 91%
04:00 +26°C° 0 mm 1 m/s 750 mmHg 92%
05:00 +26°C° 0 mm 1 m/s 751 mmHg 93%
06:00 +25°C° 0 mm 1 m/s 751 mmHg 94%
07:00 +27°C° 0 mm 1 m/s 751 mmHg 85%
08:00 +29°C° 0 mm 1 m/s 752 mmHg 75%
09:00 +31°C° 0 mm 1 m/s 752 mmHg 66%
10:00 +32°C° 0 mm 1 m/s 752 mmHg 61%
11:00 +34°C° 0 mm 2 m/s 751 mmHg 56%
12:00 +35°C° 0 mm 2 m/s 751 mmHg 51%
13:00 +35°C° 0 mm 2 m/s 750 mmHg 50%
14:00 +35°C° 0 mm 3 m/s 749 mmHg 48%
15:00 +35°C° 0 mm 3 m/s 748 mmHg 47%
16:00 +34°C° 0 mm 3 m/s 749 mmHg 54%
17:00 +32°C° 0 mm 4 m/s 749 mmHg 60%
18:00 +30°C° 0 mm 4 m/s 749 mmHg 67%
19:00 +29°C° 0 mm 4 m/s 749 mmHg 71%
20:00 +29°C° 0 mm 3 m/s 750 mmHg 75%
21:00 +28°C° 0 mm 3 m/s 750 mmHg 79%
22:00 +28°C° 0 mm 3 m/s 750 mmHg 80%
23:00 +27°C° 0 mm 2 m/s 750 mmHg 82%

28 Janeiro, Quinta-feira

Tempo Temperatura Precipitação Vento Pressão Humidade
00:00 +27°C° 0 mm 2 m/s 750 mmHg 84%
01:00 +27°C° 0 mm 2 m/s 750 mmHg 86%
02:00 +26°C° 0 mm 1 m/s 750 mmHg 88%
03:00 +26°C° 0 mm 1 m/s 750 mmHg 90%
04:00 +26°C° 0 mm 1 m/s 750 mmHg 91%
05:00 +26°C° 0 mm 1 m/s 750 mmHg 91%
06:00 +25°C° 0 mm 1 m/s 751 mmHg 92%
07:00 +27°C° 0 mm 2 m/s 751 mmHg 82%
08:00 +29°C° 0 mm 2 m/s 751 mmHg 73%
09:00 +31°C° 0 mm 2 m/s 752 mmHg 63%
10:00 +32°C° 0.1 mm 2 m/s 751 mmHg 59%
11:00 +34°C° 0.1 mm 2 m/s 751 mmHg 55%
12:00 +35°C° 0.1 mm 2 m/s 751 mmHg 51%
13:00 +35°C° 0.1 mm 2 m/s 750 mmHg 49%
14:00 +35°C° 0.1 mm 3 m/s 749 mmHg 47%
15:00 +36°C° 0.1 mm 3 m/s 748 mmHg 45%
16:00 +34°C° 0 mm 3 m/s 749 mmHg 52%
17:00 +32°C° 0 mm 4 m/s 749 mmHg 58%
18:00 +30°C° 0 mm 4 m/s 749 mmHg 65%

29 Janeiro, Sexta-feira

Tempo Temperatura Precipitação Vento Pressão Humidade

30 Janeiro, Sábado

Tempo Temperatura Precipitação Vento Pressão Humidade
Mostrar mais

Necessitamos do seu Consentimento

A Meteoprog e os seus Fornecedores de Serviços podem armazenar e aceder a dados pessoais como cookies, identificadores do dispositivo ou outras tecnologias semelhantes existentes no seu dispositivo e processar estes dados para personalizar conteúdos e anúncios, assim como funcionalidades nas redes sociais e análise de tráfego.

  • Armazenar e/ou aceder a informações no seu dispositivo

    Os cookies, identificadores do dispositivo ou outras informações podem ser armazenados ou acedidos no seu dispositivo, para os fins acima indicados.

  • Anúncios e conteúdos personalizados, medição de anúncios e conteúdos, dados sobre o público-alvo e desenvolvimento de produtos

    Os anúncios e os conteúdos podem ser personalizados com base num perfil. Podem ser adicionados dados adicionais para uma maior personalização dos anúncios e dos conteúdos. A eficácia dos anúncios e dos conteúdos pode ser medida. Podem ser obtidas informações sobre o público que visualizou os anúncios e os conteúdos. Estes dados podem ser usados para desenvolver ou melhorar sistemas, softwares ou a experiência do utilizador.

Ao clicar em "Eu concordo”, permitirá o uso de cookies, identificadores do dispositivo e web beacons mencionados ou outras tecnologias semelhantes. As configurações do navegador do seu dispositivo podem ser alteradas.

Para certos fins, podem ser invocados interesses legítimos ao invés de consentimento. Pode ler mais informação sobre este assunto na nossa Política de Privacidade e Cookies.